Location: Hamilton
(37.7830°S, 175.2830°E)
Time: 20:11:13
(UTC+12:00)

ADEOS Rocket - Pass Details

Date: 24 January 2019
Orbit: 859 x 1307 km, 98.7° (Epoch: 19 April)

Event Time Altitude Azimuth Distance (km) Brightness Sun altitude
Exits shadow 21:18:55 - 56° (ENE) 2,612 4.5 -7.9°
Reaches altitude 10° 21:19:05 10° 57° (ENE) 2,558 4.5 -7.9°
Maximum altitude 21:23:44 27° 113° (ESE) 1,610 3.9 -8.7°
Drops below altitude 10° 21:28:18 10° 169° (S) 2,526 5.5 -9.4°
Sets 21:31:00 0° 180° (S) 3,481 6.4 -9.9°
